Regional Weather Roundup
Issued by NWS

Home | Current Version | Previous Version | Graphics & Text | Print | Product List | Glossary On
Versions: 1 2 3 4 5 6 7 8 9 10 11 12 13 14 15 16 17 18 19 20 21 22 23 24 25 26 27 28 29 30 31 32 33 34 35 36 37 38 39 40 41 42 43 44 45 46 47 48 49 50
000
ASUS43 KIND 221009
RWRIN

WEATHER ROUNDUP FOR INDIANA
NATIONAL WEATHER SERVICE INDIANAPOLIS IN
500 AM EST MON JAN 22 2018

NOTE: "FAIR" INDICATES FEW OR NO CLOUDS BELOW 12,000 FEET WITH NO
SIGNIFICANT WEATHER AND/OR OBSTRUCTIONS TO VISIBILITY.

* - STATION DOES NOT REPORT WEATHER SUCH AS PRECIPITATION OR FOG.

+ - STATION NOT QUALITY CONTROLLED BY THE NATIONAL WEATHER SERVICE.
    USE DATA WITH CAUTION...ESPECIALLY DEWPOINT AND RELATIVE
    HUMIDITY OBSERVATIONS.

INZ001>003-010>013-019-020-221100-
NORTHWEST INDIANA

CITY           SKY/WX    TMP DP  RH WIND       PRES   REMARKS
GARY /AIRPORT/ CLOUDY    50  50 100 SE6       29.71F FOG
KNOX *+        CLOUDY    46  46 100 S12       29.75F
LA PORTE +     LGT RAIN  44  44 100 SE5       29.76F VSB 1/2
MICHIGAN CITY+ LGT RAIN  48  48 100 S5        29.75F
MONTICELLO +   CLOUDY    47  46  95 SE8       29.74F
RENSSELAER +   CLOUDY    46  43  87 SE10      29.72F
VALPARAISO     LGT RAIN  47  47 100 E5        29.74F VSB 3/4

$$

LMZ046-743>745-221100-
SOUTHERN LAKE MICHIGAN

STATION/POSITION TIME  TEMP    WIND        PRES    WAVE
                       AIR SEA DIR/SP/G            HT
                 (UTC) (F)     (DEG/KT/KT) (MB)    (FT)
BURNS HARBOR     0940   50     160/ 13/ 21 1007.5F
MICHIGAN CITY    0940   49     140/ 12/ 14   N/A

$$

INZ004-005-014>016-021>024-221100-
NORTH CENTRAL INDIANA

CITY           SKY/WX    TMP DP  RH WIND       PRES   REMARKS
GOSHEN         CLOUDY    48  46  93 SE7       29.80F
LOGANSPORT +   CLOUDY    45  45 100 S10       29.78F
PERU/GRISSOM   MOCLDY    47  47 100 S10       29.78F
ROCHESTER +    FAIR      48 N/A N/A S7        29.78F
SOUTH BEND     LGT RAIN  47  46  97 SE5       29.78F
WARSAW +       CLOUDY    46  46 100 SE5       29.80F

$$

INZ006>009-017-018-025>027-221100-
NORTHEAST INDIANA

CITY           SKY/WX    TMP DP  RH WIND       PRES   REMARKS
AUBURN +       FOG      N/A N/A N/A CALM      29.84F VSB 1/2
FORT WAYNE     CLOUDY    45  44  97 SE7       29.83F
HUNTINGTON +   CLOUDY    47  46  97 S6        29.82F
KENDALLVILLE + CLOUDY    45  45 100 SE9       29.82F FOG

$$

INZ028-029-035-036-043>045-051>053-221100-
WEST CENTRAL INDIANA

CITY           SKY/WX    TMP DP  RH WIND       PRES   REMARKS
CRAWFORDSVL +  FAIR      47  47 100 MISG      29.75F
GREENCASTLE +  CLOUDY    48  45  87 SE8       29.78F
LAFAYETTE      MOCLDY    51  47  86 SE8       29.74F
TERRE HAUTE    FAIR      49  43  80 SE9       29.75F

$$

INZ030>032-037>040-046>048-054>057-064-065-221100-
CENTRAL INDIANA

CITY           SKY/WX    TMP DP  RH WIND       PRES   REMARKS
FISHERS *+       N/A     48  48 100 SE12      29.81F
FRANKFORT +    CLOUDY   N/A N/A N/A S12       29.78F
GREENWOOD *+   MOCLDY    50  47  88 SE12      29.84F
INDIANAPOLIS   MOCLDY    48  46  93 SE10      29.80F
-EAGLE CREEK   FAIR      49  46  90 SE8       29.80F
MARION +       CLOUDY    50  46  88 S16G23    29.82F
MT COMFORT *+  MOCLDY    50  48  93 S10       29.83F
SHELBYVILLE    FAIR      53  46  77 S15       29.84
ZIONSVILLE +   FAIR      47  47  98 SE14      29.80F

$$

INZ033-034-041-042-049-050-058-059-221100-
EAST CENTRAL INDIANA

CITY           SKY/WX    TMP DP  RH WIND       PRES   REMARKS
MUNCIE         CLOUDY    54  46  74 S14G22    29.84F
RICHMOND +     CLOUDY    45  45 100 S8        29.90F

$$

INZ060-061-067>069-081>083-085>088-221100-
SOUTHWEST INDIANA

CITY           SKY/WX    TMP DP  RH WIND       PRES   REMARKS
EVANSVILLE     FAIR      56  45  66 SE10      29.80F
HUNTINGBURG +  FAIR      56  45  66 S16       29.81F
WASHINGTON +   FAIR      51  41  69 S15       29.78F

$$

INZ062-063-066-070>080-084-089>092-221100-
SOUTH CENTRAL AND SOUTHEAST INDIANA

CITY           SKY/WX    TMP DP  RH WIND       PRES   REMARKS
BATESVILLE *+    N/A    N/A N/A N/A MISG        N/A
BEDFORD +      FAIR      54  43  66 SE8       29.83F
BLOOMINGTON    FAIR      51  45  79 SE6       29.80F
FRENCH LICK *+ FAIR      55  39  54 S12       29.84F
MADISON *+     FAIR      54  43  66 S7        29.90F
NORTH VERNON + MOCLDY    52  45  76 SE8       29.88F
SEYMOUR +      MOCLDY    52  45  76 SE10      29.86F

$$




USA.gov is the U.S. government's official web portal to all federal, state and local government web resources and services.